Location: Melbourne
(37.8170°S, 144.9670°E)
Time: 21:53:01
(UTC+10:00)

ERBS - Visible Passes

Search period start: 24 May 2016 00:00
Search period end: 03 June 2016 00:00
Orbit: 432 x 456 km, 57.0° (Epoch: 23 May)

Date Brightness Start Highest point End Pass type
(mag) Time Alt. Az. Time Alt. Az. Time Alt. Az.
24 May 4.8 05:39:00 14° S 05:40:40 18° SE 05:43:12 10° E visible
25 May 5.2 05:01:30 13° SE 05:01:30 13° SE 05:03:08 10° ESE visible
25 May 2.4 06:35:01 10° SW 06:38:38 83° NW 06:42:12 10° NE visible
26 May 2.8 05:57:35 26° SSW 05:59:27 61° SE 06:03:00 10° NE visible
27 May 3.6 05:20:14 39° SE 05:20:14 39° SE 05:23:37 10° ENE visible
28 May 5.4 04:42:57 16° E 04:42:57 16° E 04:44:02 10° E visible
28 May 3.6 06:16:28 22° W 06:17:44 27° NW 06:20:48 10° N visible
29 May 3.2 05:39:16 38° NNW 05:39:16 38° NNW 05:42:02 10° NNE visible
30 May 5.0 05:02:08 17° NNE 05:02:08 17° NNE 05:03:01 10° NE visible
01 Jun 4.9 18:49:27 10° NNE 18:49:48 11° NNE 18:49:48 11° NNE visible
02 Jun 4.8 18:12:25 10° ENE 18:12:37 10° ENE 18:12:37 10° ENE visible
02 Jun 5.4 19:45:29 10° NW 19:46:08 15° NW 19:46:08 15° NW visible
